User: anonymous   Login
Location: Terra Rouge Observatory
(46.0000°N, 62.7500°W)
Time: 11:34:22
(UTC-03:00)
Language:

NOSS 3-1 (A) - Orbit

View from above orbital plane
View from above orbital plane
View from above satellite
View from above satellite

Ground track
Ground track

The orbit data is extracted from the following two-line orbital elements,

1 26905U 01040A   15140.84790105 0.00000000  00000-0  00000-0 0    05
2 26905  63.4260 168.7066 0299000 358.1659   1.8341 13.40719301    02
Epoch (UTC): 20 May 2015 20:20:58
Eccentricity: 0.0299000
inclination: 63.4260°
perigee height: 883 km
apogee height: 1330 km
right ascension of ascending node: 168.7066°
argument of perigee: 358.1659°
revolutions per day: 13.40719301
mean anomaly at epoch: 1.8341°
orbit number at epoch: 0

The dashed part of the orbit path shows where the satellite is in the earth's shadow,  

DLR